Location: Newark
(21.1200°N, 73.4000°E)
Time: 18:02:57
(UTC+00:00)

Explorer 11/Cluster Stage 4 - Pass Details

Date: 22 January 2020
Orbit: 467 x 1259 km, 28.8° (Epoch: 23 February)

Event Time Altitude Azimuth Distance (km) Brightness Sun altitude
Rises 08:55:33 0° 243° (WSW) 4,192 10.9 42.6°
Reaches altitude 10° 08:58:31 10° 242° (WSW) 3,226 10.6 42.3°
Maximum altitude 09:06:47 79° 156° (SSE) 1,215 8.4 41.2°
Drops below altitude 10° 09:14:10 10° 71° (ENE) 2,907 9.2 40.2°
Sets 09:16:43 0° 70° (ENE) 3,760 9.7 39.8°
